Location: Poughquag
(41.6090°N, 73.6820°W)
Time: 11:27:50
(UTC-05:00)

N. Korean satellite - Pass Details

Date: 18 January 2020
Orbit: 456 x 505 km, 97.2° (Epoch: 24 February)

Event Time Altitude Azimuth Distance (km) Brightness Sun altitude
Rises 17:27:23 0° 189° (S) 2,474 10.6 -6.8°
Reaches altitude 10° 17:29:35 10° 200° (SSW) 1,599 9.8 -7.1°
Maximum altitude 17:32:38 29° 263° (W) 859 8.8 -7.7°
Drops below altitude 10° 17:35:41 10° 326° (NW) 1,604 9.4 -8.2°
Sets 17:37:54 0° 338° (NNW) 2,482 10.2 -8.6°
